When you browse on this site, cookies collect data to enhance your experience and personalize the content and advertising you see.
Visit our Privacy Policy to learn more. By continuing to use the site, you agree to this use of cookies and data.
  • In Österreich
  • Länderverzeichnis
  • Für 7 Tage
  • Wassertemperatur
  • Satellitenkarten
  • Wetterkarte
  • News
  • Widgets
  • user-avatar
    Anmelden

    Stündliche Wetter Polostevichi

    Heute, 25 Mai, Samstag

    Zeit Temperatur Niederschläge Wind Luftdruck Luftfeuchtigkeit
    00:00 +15°C° 0 mm 2 m/S 744 mmHg 94%
    01:00 +15°C° 0 mm 2 m/S 744 mmHg 94%
    02:00 +14°C° 0 mm 1 m/S 744 mmHg 94%
    03:00 +14°C° 0 mm 1 m/S 744 mmHg 94%
    04:00 +14°C° 0 mm 2 m/S 744 mmHg 95%
    05:00 +14°C° 0 mm 2 m/S 744 mmHg 95%
    06:00 +16°C° 0 mm 2 m/S 744 mmHg 91%
    07:00 +17°C° 0 mm 2 m/S 744 mmHg 86%
    08:00 +18°C° 0 mm 2 m/S 744 mmHg 81%
    09:00 +20°C° 0 mm 3 m/S 744 mmHg 75%
    10:00 +21°C° 0 mm 3 m/S 744 mmHg 69%
    11:00 +22°C° 0 mm 4 m/S 744 mmHg 62%
    12:00 +22°C° 0.1 mm 4 m/S 744 mmHg 60%
    13:00 +23°C° 0.1 mm 4 m/S 744 mmHg 58%
    14:00 +23°C° 0.1 mm 4 m/S 744 mmHg 56%
    15:00 +23°C° 0 mm 4 m/S 744 mmHg 56%
    16:00 +22°C° 0 mm 4 m/S 744 mmHg 56%
    17:00 +22°C° 0 mm 4 m/S 744 mmHg 56%
    18:00 +20°C° 0 mm 3 m/S 744 mmHg 62%
    19:00 +19°C° 0 mm 2 m/S 744 mmHg 67%
    20:00 +17°C° 0 mm 2 m/S 744 mmHg 73%
    21:00 +16°C° 0 mm 2 m/S 744 mmHg 76%
    22:00 +15°C° 0 mm 2 m/S 744 mmHg 79%
    23:00 +14°C° 0 mm 2 m/S 745 mmHg 82%

    Morgen, 26 Mai, Sonntag

    Zeit Temperatur Niederschläge Wind Luftdruck Luftfeuchtigkeit
    00:00 +14°C° 0 mm 2 m/S 745 mmHg 85%
    01:00 +13°C° 0 mm 2 m/S 745 mmHg 89%
    02:00 +13°C° 0 mm 2 m/S 745 mmHg 92%
    03:00 +12°C° 0 mm 2 m/S 745 mmHg 92%
    04:00 +12°C° 0 mm 2 m/S 746 mmHg 93%
    05:00 +12°C° 0 mm 2 m/S 746 mmHg 93%
    06:00 +13°C° 0 mm 2 m/S 746 mmHg 85%
    07:00 +14°C° 0 mm 2 m/S 746 mmHg 77%
    08:00 +14°C° 0 mm 3 m/S 746 mmHg 69%
    09:00 +16°C° 0 mm 3 m/S 746 mmHg 66%
    10:00 +17°C° 0 mm 4 m/S 746 mmHg 63%
    11:00 +19°C° 0 mm 4 m/S 746 mmHg 59%
    12:00 +19°C° 0 mm 4 m/S 746 mmHg 59%
    13:00 +19°C° 0 mm 5 m/S 746 mmHg 60%
    14:00 +20°C° 0 mm 5 m/S 746 mmHg 60%
    15:00 +20°C° 0 mm 5 m/S 746 mmHg 60%
    16:00 +20°C° 0 mm 5 m/S 746 mmHg 60%
    17:00 +20°C° 0 mm 5 m/S 746 mmHg 60%
    18:00 +19°C° 0 mm 4 m/S 746 mmHg 66%
    19:00 +17°C° 0 mm 3 m/S 746 mmHg 71%
    20:00 +16°C° 0 mm 3 m/S 746 mmHg 77%
    21:00 +15°C° 0 mm 2 m/S 746 mmHg 81%
    22:00 +14°C° 0 mm 2 m/S 746 mmHg 85%
    23:00 +13°C° 0 mm 2 m/S 746 mmHg 89%

    übermorgen, 27 Mai, Montag

    Zeit Temperatur Niederschläge Wind Luftdruck Luftfeuchtigkeit
    00:00 +13°C° 0 mm 2 m/S 746 mmHg 90%
    01:00 +12°C° 0 mm 2 m/S 747 mmHg 92%
    02:00 +12°C° 0 mm 2 m/S 747 mmHg 94%
    03:00 +12°C° 0 mm 2 m/S 747 mmHg 93%
    04:00 +12°C° 0 mm 2 m/S 747 mmHg 93%
    05:00 +12°C° 0 mm 2 m/S 747 mmHg 93%
    06:00 +13°C° 0 mm 3 m/S 747 mmHg 85%
    07:00 +17°C° 0 mm 3 m/S 747 mmHg 77%
    08:00 +19°C° 0 mm 4 m/S 747 mmHg 69%
    09:00 +20°C° 0 mm 4 m/S 747 mmHg 65%
    10:00 +22°C° 0 mm 5 m/S 747 mmHg 60%
    11:00 +23°C° 0 mm 5 m/S 747 mmHg 55%
    12:00 +25°C° 0 mm 5 m/S 747 mmHg 54%
    13:00 +25°C° 0 mm 5 m/S 746 mmHg 53%
    14:00 +26°C° 0 mm 5 m/S 746 mmHg 52%
    15:00 +26°C° 0.1 mm 5 m/S 746 mmHg 55%
    16:00 +26°C° 0.1 mm 5 m/S 746 mmHg 59%
    17:00 +25°C° 0.1 mm 4 m/S 746 mmHg 62%
    18:00 +23°C° 0.1 mm 4 m/S 746 mmHg 70%
    19:00 +21°C° 0.1 mm 3 m/S 746 mmHg 77%
    20:00 +19°C° 0.1 mm 3 m/S 746 mmHg 84%
    21:00 +19°C° 0.1 mm 3 m/S 746 mmHg 87%
    22:00 +18°C° 0.1 mm 3 m/S 746 mmHg 90%
    23:00 +18°C° 0.1 mm 3 m/S 747 mmHg 92%

    28 Mai, Dienstag

    Zeit Temperatur Niederschläge Wind Luftdruck Luftfeuchtigkeit
    00:00 +18°C° 0 mm 2 m/S 747 mmHg 92%
    01:00 +18°C° 0 mm 2 m/S 746 mmHg 91%
    02:00 +18°C° 0 mm 2 m/S 746 mmHg 90%
    03:00 +17°C° 0 mm 2 m/S 746 mmHg 91%
    04:00 +17°C° 0 mm 2 m/S 746 mmHg 92%
    05:00 +17°C° 0 mm 2 m/S 746 mmHg 92%
    06:00 +18°C° 0 mm 2 m/S 746 mmHg 88%
    07:00 +20°C° 0 mm 3 m/S 746 mmHg 84%
    08:00 +21°C° 0 mm 3 m/S 746 mmHg 79%
    09:00 +22°C° 0.4 mm 3 m/S 746 mmHg 77%
    10:00 +25°C° 0.4 mm 4 m/S 745 mmHg 74%
    11:00 +26°C° 0.4 mm 4 m/S 745 mmHg 71%
    12:00 +26°C° 0.8 mm 4 m/S 745 mmHg 70%
    13:00 +26°C° 0.8 mm 4 m/S 744 mmHg 68%
    14:00 +27°C° 0.8 mm 5 m/S 744 mmHg 66%
    15:00 +27°C° 0.8 mm 5 m/S 744 mmHg 69%
    16:00 +26°C° 0.8 mm 4 m/S 744 mmHg 72%
    17:00 +26°C° 0.8 mm 4 m/S 744 mmHg 74%
    18:00 +25°C° 0.2 mm 4 m/S 744 mmHg 76%
    19:00 +22°C° 0.2 mm 4 m/S 744 mmHg 77%
    20:00 +21°C° 0.2 mm 4 m/S 744 mmHg 79%
    21:00 +21°C° 0 mm 4 m/S 744 mmHg 79%
    22:00 +20°C° 0 mm 4 m/S 744 mmHg 78%
    23:00 +20°C° 0 mm 5 m/S 744 mmHg 78%

    29 Mai, Mittwoch

    Zeit Temperatur Niederschläge Wind Luftdruck Luftfeuchtigkeit
    00:00 +19°C° 0 mm 5 m/S 743 mmHg 78%
    01:00 +19°C° 0 mm 4 m/S 743 mmHg 78%
    02:00 +18°C° 0 mm 4 m/S 743 mmHg 78%
    03:00 +17°C° 0 mm 4 m/S 743 mmHg 79%
    04:00 +17°C° 0 mm 4 m/S 743 mmHg 79%
    05:00 +15°C° 0 mm 4 m/S 743 mmHg 80%
    06:00 +18°C° 0 mm 4 m/S 743 mmHg 77%
    07:00 +19°C° 0 mm 5 m/S 743 mmHg 75%
    08:00 +20°C° 0 mm 5 m/S 743 mmHg 72%
    09:00 +21°C° 0 mm 5 m/S 743 mmHg 69%
    10:00 +23°C° 0 mm 5 m/S 743 mmHg 67%
    11:00 +25°C° 0 mm 5 m/S 743 mmHg 64%
    12:00 +26°C° 0.3 mm 6 m/S 743 mmHg 63%
    13:00 +27°C° 0.3 mm 6 m/S 743 mmHg 62%
    14:00 +28°C° 0.3 mm 7 m/S 743 mmHg 61%
    15:00 +26°C° 1.3 mm 6 m/S 743 mmHg 68%
    16:00 +25°C° 1.3 mm 5 m/S 743 mmHg 74%
    17:00 +23°C° 1.3 mm 4 m/S 743 mmHg 80%
    18:00 +22°C° 0.2 mm 3 m/S 743 mmHg 83%
    19:00 +21°C° 0.2 mm 3 m/S 744 mmHg 86%
    20:00 +20°C° 0.2 mm 2 m/S 744 mmHg 90%
    21:00 +19°C° 0 mm 2 m/S 744 mmHg 92%
    22:00 +18°C° 0 mm 2 m/S 745 mmHg 93%
    23:00 +17°C° 0 mm 2 m/S 745 mmHg 95%

    30 Mai, Donnerstag

    Zeit Temperatur Niederschläge Wind Luftdruck Luftfeuchtigkeit
    00:00 +17°C° 0 mm 2 m/S 745 mmHg 96%
    01:00 +17°C° 0 mm 3 m/S 746 mmHg 97%
    02:00 +16°C° 0 mm 3 m/S 746 mmHg 98%
    03:00 +16°C° 0 mm 3 m/S 747 mmHg 97%
    04:00 +16°C° 0 mm 3 m/S 747 mmHg 96%
    05:00 +16°C° 0 mm 3 m/S 748 mmHg 95%
    06:00 +16°C° 0 mm 3 m/S 748 mmHg 94%
    07:00 +16°C° 0 mm 3 m/S 749 mmHg 93%
    08:00 +16°C° 0 mm 3 m/S 749 mmHg 92%
    09:00 +16°C° 0 mm 3 m/S 750 mmHg 87%
    10:00 +17°C° 0 mm 3 m/S 750 mmHg 83%
    11:00 +18°C° 0 mm 3 m/S 751 mmHg 78%
    12:00 +19°C° 0 mm 3 m/S 751 mmHg 77%
    13:00 +19°C° 0 mm 3 m/S 751 mmHg 75%
    14:00 +19°C° 0 mm 3 m/S 751 mmHg 73%
    15:00 +19°C° 0 mm 3 m/S 751 mmHg 74%
    16:00 +19°C° 0 mm 3 m/S 751 mmHg 75%
    17:00 +19°C° 0 mm 3 m/S 751 mmHg 76%
    18:00 +18°C° 0 mm 3 m/S 752 mmHg 80%
    19:00 +17°C° 0 mm 2 m/S 752 mmHg 84%
    20:00 +16°C° 0 mm 2 m/S 752 mmHg 88%
    21:00 +15°C° 0 mm 2 m/S 752 mmHg 90%
    22:00 +15°C° 0 mm 1 m/S 752 mmHg 92%
    23:00 +14°C° 0 mm 1 m/S 752 mmHg 95%
    Mehr zeigen